Miscellaneous Local Product
Issued by NWS Hastings, NE

Home | Current Version | Previous Version | Graphics & Text | Print | Product List | Glossary On
Versions: 1 2 3 4 5 6 7 8 9 10 11 12 13 14 15 16 17 18 19 20 21 22 23 24 25 26 27 28 29 30 31 32 33 34 35 36 37 38 39 40 41 42 43 44 45 46 47 48 49 50
000
AXUS43 KGID 281502
MISGRI

GID CWA HOURLY WEATHER ROUNDUP
NATIONAL WEATHER SERVICE HASTINGS NE
900 AM CST SAT FEB 28 2015

NOTE: "FAIR" INDICATES FEW OR NO CLOUDS BELOW 12,000 FEET WITH NO
SIGNIFICANT WEATHER AND/OR OBSTRUCTIONS TO VISIBILITY.

...SOUTH CENTRAL NEBRASKA...

CITY           SKY/WX    TMP DP  RH WIND       PRES   REMARKS
GRAND ISLAND   CLOUDY    11   8  88 S10       30.37R WCI  -3
HASTINGS       CLOUDY    12   9  87 S8        30.34R WCI   0
KEARNEY        CLOUDY    12   7  79 S15       30.31R WCI  -4
ORD            CLOUDY    12   6  77 SE6       30.30R WCI   3
YORK           PTSUNNY   14  10  85 S10       30.39S WCI   1
AURORA         CLOUDY    13   9  84 S12       30.37R WCI  -1
LEXINGTON      CLOUDY    16  10  77 S12       30.26R WCI   3
HOLDREGE       LGT SNOW  13   9  83 S12       30.29S WCI  -1
HEBRON         LGT SNOW  15  10  82 S9        30.43R WCI   3

...NEBRASKA PANHANDLE...

CITY           SKY/WX    TMP DP  RH WIND       PRES   REMARKS
CHADRON        SUNNY     12   5  73 SW5       30.10R WCI   4
ALLIANCE       SUNNY     10   6  84 SW8       30.05R WCI  -2
SCOTTSBLUFF    SUNNY     13   5  70 N3        30.05R
SIDNEY         SUNNY     12   7  80 S9        30.03R WCI   0

...WESTERN AND NORTH CENTRAL NEBRASKA...

CITY           SKY/WX    TMP DP  RH WIND       PRES   REMARKS
VALENTINE      SUNNY     16   7  67 SW17G25   30.16R WCI   0
AINSWORTH      SUNNY     14   8  77 S17       30.18R WCI  -2
ONEILL         SUNNY     15   8  76 S12       30.28S WCI   1
BROKEN BOW     CLOUDY    15   9  76 S10       30.24R WCI   2
IMPERIAL         N/A     14   6  70 S13       30.14R WCI   0
NORTH PLATTE   FLURRIES  15   8  73 S13       30.20R WCI   1
MCCOOK         CLOUDY    17   8  67 S13       30.23R WCI   4

...EASTERN NEBRASKA...

CITY           SKY/WX    TMP DP  RH WIND       PRES   REMARKS
NORFOLK        MOSUNNY   14   8  77 S16       30.38R WCI  -2
SO SIOUX CITY  SUNNY     11   3  70 S12       30.46R WCI  -3
COLUMBUS       SUNNY     14   3  62 S13       30.42S WCI   0
ALBION         PTSUNNY   13   8  82 S14       30.36R WCI  -2
OMAHA EPPLEY   MOSUNNY   13   5  70 S13       30.51R WCI  -2
OFFUTT AFB     SUNNY     13   6  75 SE7       30.49R WCI   2
MILLARD        SUNNY     16   7  69 S8        30.49R WCI   5
LINCOLN        PTSUNNY   13   6  74 S10       30.46S WCI   0
NEBRASKA CITY  SUNNY     14   6  70 SE8       30.48R WCI   2
BEATRICE       CLOUDY    15   9  76 S6        30.44S WCI   6
FALLS CITY     MOSUNNY   18   8  65 SE9       30.49S WCI   7

...NORTHERN KANSAS...

CITY           SKY/WX    TMP DP  RH WIND       PRES   REMARKS
GOODLAND       LGT SNOW  11   8  88 SE9       30.12R FOG     WCI  -2
HILL CITY      LGT SNOW  14  10  84 SE10      30.30R FOG     WCI   1
NORTON         LGT SNOW  16   9  73 SE9       30.27R WCI   4
PHILLIPSBURG   LGT SNOW  18  12  79 SE8       30.34R WCI   7
SMITH CENTER   LGT SNOW  12  10  92 SE12      30.36F WCI  -2
BELOIT         CLOUDY    16  12  86 SE9       30.40F VSB 1   WCI   4
HAYS           CLOUDY    16   3  57 S9        30.33R WCI   4
RUSSELL        LGT SNOW  15  11  83 SE14      30.33S FOG     WCI   0
CONCORDIA      LGT SNOW  16  13  88 S8        30.42S FOG     WCI   5
SALINA         LGT SNOW  18  13  80 SE7       30.43R WCI   9
TOPEKA         LGT SNOW  18  13  80 SE7       30.52R VSB 1   WCI   9



USA.gov is the U.S. government's official web portal to all federal, state and local government web resources and services.